Theta_e
310 311 311 311 311 311 311 311 311 311 310 311 310 309 309 308 308 308 309 310 311 310 311 311 312 314 315 315 315 315 317 317 318 318 318 319 319 320 320 320 320 319 321 323 324 325 327 327 326 324 323 331
307 308 308 309 309 309 308 308 308 307 307 307 306 306 305 304 304 305 306 306 308 308 307 308 308 310 313 313 313 314 314 314 315 315 316 316 316 317 318 317 316 316 317 318 319 321 322 322 322 322 320 331
303 304 305 306 306 306 306 306 305 304 304 303 303 302 302 302 301 301 302 303 303 304 304 304 304 306 309 311 311 311 312 312 313 313 314 314 315 315 315 314 314 313 315 315 316 317 317 318 318 318 324 335
301 301 302 303 303 303 303 303 303 302 302 300 300 300 300 300 301 301 302 301 301 301 302 301 301 303 306 308 307 308 309 309 310 311 312 312 313 313 313 312 311 311 313 314 314 314 314 315 315 327 330 333
301 300 300 300 300 300 300 301 300 300 300 300 300 300 300 302 301 302 301 301 300 300 300 299 299 301 303 304 304 305 306 306 308 309 310 310 311 311 311 309 309 308 309 311 311 311 312 313 321 323 326 328
301 301 299 300 300 300 300 299 299 299 300 299 301 300 300 300 299 300 299 299 298 300 299 299 297 299 300 302 302 302 303 304 305 306 307 308 309 309 308 307 308 309 309 309 309 310 312 316 317 319 320 320
301 300 300 300 300 300 299 299 299 300 299 300 300 300 300 298 299 299 299 297 296 297 296 297 296 297 298 299 299 300 301 301 302 304 305 305 306 306 305 306 306 307 307 308 308 308 310 311 312 315 316 317
300 300 300 299 300 300 299 299 299 299 299 299 299 299 299 298 299 299 298 297 296 297 299 299 297 296 296 297 298 297 299 299 300 302 302 303 303 304 305 304 304 304 305 306 307 308 308 309 310 312 313 315
299 300 299 299 299 299 298 299 299 298 299 298 298 298 298 298 298 298 298 298 298 298 298 299 299 298 298 298 298 297 298 298 299 299 301 301 301 302 302 303 303 304 304 305 306 306 306 307 308 309 311 312
298 299 298 299 298 298 298 299 298 298 298 297 297 297 297 297 297 297 297 297 297 298 297 297 297 297 297 297 297 297 297 297 298 298 299 299 300 300 302 302 303 303 303 304 304 304 306 307 307 308 308 310
299 298 298 298 298 298 297 298 298 296 296 297 296 296 296 296 295 296 295 296 296 296 296 296 296 296 296 296 296 296 296 296 297 297 297 298 299 300 301 301 302 302 303 303 303 304 304 305 305 306 307 308
297 298 298 297 297 297 296 297 296 296 296 297 295 295 295 295 295 294 294 295 294 295 295 295 295 295 295 295 295 295 296 295 295 296 296 298 299 298 299 300 301 301 302 302 303 303 303 304 304 305 305 306
297 297 297 297 297 296 295 296 296 295 296 295 295 295 294 294 294 294 294 294 294 294 294 294 294 294 294 294 294 294 294 294 294 295 295 296 296 297 298 298 299 300 300 302 302 302 302 303 303 304 304 305
297 297 297 296 296 295 296 295 295 295 295 294 294 293 294 293 293 294 292 293 293 293 293 293 294 294 293 293 293 293 293 293 293 293 294 295 295 296 296 296 298 298 299 300 300 301 301 302 303 303 303 304
296 296 296 296 296 296 295 295 295 295 295 294 294 293 293 293 293 293 293 292 292 292 292 292 293 293 293 293 292 293 292 293 293 293 293 294 293 294 294 295 296 297 297 298 299 300 301 301 302 302 303 304
296 296 296 296 295 295 295 295 295 294 294 294 293 293 293 293 292 292 292 292 291 291 291 291 291 292 292 292 292 292 292 292 293 293 293 293 293 293 294 294 295 296 296 296 297 299 299 300 300 301 302 302
296 296 295 295 295 295 295 294 294 294 294 293 294 293 293 293 292 292 292 291 291 291 290 291 291 291 291 292 291 291 292 292 293 292 292 292 292 292 293 293 293 295 294 294 295 296 297 298 298 299 300 301
295 295 295 295 295 294 294 293 293 293 294 293 293 293 293 292 292 291 291 291 291 290 290 290 290 290 290 291 291 291 291 291 291 291 291 291 291 291 291 291 292 291 292 293 293 294 295 295 296 298 299 299
295 295 295 294 294 294 294 294 293 293 293 293 293 292 292 292 291 291 291 290 290 289 289 289 289 289 289 290 290 290 291 290 290 291 290 290 289 290 290 291 291 291 291 292 292 293 294 294 295 296 296 298
295 294 294 294 295 294 294 293 293 293 293 293 292 292 292 292 291 291 291 290 290 289 289 288 288 289 289 289 289 290 290 290 290 290 289 290 290 288 289 289 289 290 290 291 291 292 293 294 294 294 295 296
295 294 294 293 293 293 293 293 293 292 293 293 292 292 291 291 291 291 290 290 289 289 289 288 288 288 289 289 288 288 289 289 290 289 289 289 289 289 287 288 288 289 289 289 290 291 292 293 294 294 295 296
294 294 294 293 293 293 292 293 293 292 292 292 292 291 291 291 290 290 290 290 289 288 288 288 288 288 288 288 288 288 288 288 289 289 288 287 288 288 287 287 287 287 288 288 289 289 291 292 293 294 295 296
294 293 293 293 293 292 292 292 292 292 291 292 292 291 291 290 290 290 290 289 289 288 288 287 288 288 288 288 287 287 287 288 288 288 288 287 287 288 288 286 287 287 287 287 288 288 289 291 292 293 294 295
293 292 292 291 292 291 291 292 291 292 291 292 291 291 290 290 290 290 289 289 288 288 288 287 287 287 287 287 287 286 287 287 287 286 286 286 286 286 286 287 287 287 286 286 287 288 291 293 293 294 294 295
292 291 291 291 291 291 291 291 291 291 291 291 291 291 290 290 289 290 289 289 288 288 287 287 287 287 287 287 286 286 286 287 286 286 286 285 286 285 285 285 287 287 287 285 286 289 289 289 291 292 293 295
292 293 292 291 291 291 291 290 290 290 291 290 291 290 290 290 290 289 289 288 288 287 287 286 286 286 286 286 286 286 286 286 286 286 285 285 284 286 284 284 286 286 286 285 284 282 284 286 291 293 294 294
292 292 292 291 291 290 290 291 290 290 290 290 290 290 290 290 289 289 288 288 288 286 286 286 285 285 285 285 286 285 285 286 285 285 285 285 284 283 285 284 286 286 286 282 283 284 284 285 283 288 291 294
293 292 292 292 291 291 290 289 290 290 290 289 289 288 289 289 289 288 288 288 287 286 286 286 285 285 285 285 286 285 284 285 285 285 285 284 284 284 282 284 284 286 285 284 283 280 283 282 283 282 287 288
293 292 291 290 290 290 289 289 288 288 288 289 289 288 288 288 289 288 287 287 287 286 285 285 285 285 285 285 285 285 284 284 284 284 284 284 283 283 282 281 283 284 285 284 285 282 281 281 282 283 284 284
292 291 290 289 288 287 287 287 287 287 288 288 288 288 289 288 288 287 287 286 286 285 285 285 285 285 284 284 284 285 284 284 284 284 284 284 283 283 283 282 281 281 284 284 284 284 283 283 280 280 282 282
292 290 290 289 288 289 288 287 289 289 288 287 287 288 287 287 287 287 286 286 285 285 285 284 284 284 284 284 284 284 283 283 283 284 284 284 283 283 283 282 280 281 282 283 284 283 283 283 283 283 281 278
Wind_Speed
14 13 14 14 14 15 15 15 15 15 15 15 15 14 14 14 14 14 15 15 16 16 16 16 16 16 16 16 16 16 16 15 15 15 15 15 15 15 15 15 16 16 16 16 16 15 15 15 15 14 13 8
13 13 13 14 14 14 14 14 15 14 14 14 14 13 12 13 12 13 13 14 15 15 16 16 16 17 17 16 16 16 16 16 15 15 15 15 15 15 15 15 15 15 14 14 15 15 15 15 15 14 14 8
9 12 12 13 13 13 13 14 14 13 13 13 12 12 11 10 10 10 12 12 13 14 14 16 15 17 17 17 17 17 17 16 16 15 15 14 14 14 14 14 14 13 11 12 13 14 15 16 15 15 11 7
7 9 11 12 13 13 13 13 13 12 11 11 11 10 10 8 7 8 8 11 9 12 12 15 13 15 16 16 17 17 17 17 17 16 16 16 15 14 14 13 13 10 9 10 11 12 14 14 16 9 6 8
6 6 6 8 10 11 12 11 11 10 10 8 8 8 8 6 7 7 7 8 8 9 9 12 13 14 14 15 15 16 16 16 16 17 17 17 16 16 16 14 12 7 7 9 9 11 11 13 8 6 7 8
3 4 5 6 5 6 7 8 7 8 8 8 7 8 6 6 6 5 6 6 8 6 8 9 12 12 13 13 13 15 14 14 15 16 16 16 16 17 15 15 8 7 8 8 8 8 10 7 5 6 7 8
4 4 4 4 4 4 6 6 7 6 6 6 6 6 5 5 5 4 4 5 5 5 5 5 7 10 10 11 11 14 12 12 12 15 14 14 15 14 12 8 7 7 7 8 9 8 6 5 5 7 8 8
3 3 3 3 3 3 3 4 4 5 6 5 6 5 5 5 4 4 4 4 3 4 4 4 5 6 7 8 8 13 8 9 10 14 11 12 14 9 7 7 7 7 7 7 7 7 7 6 7 7 7 7
3 3 3 3 3 3 3 3 4 4 4 5 5 5 4 4 4 4 4 5 5 5 5 5 5 5 6 6 6 9 7 7 7 8 8 7 8 7 8 8 8 7 8 7 8 7 7 7 8 7 7 7
4 2 3 3 3 3 3 3 3 3 4 4 5 5 5 4 4 5 5 5 6 6 6 6 6 6 6 6 6 6 6 6 7 7 6 7 7 7 7 7 7 8 8 8 8 8 8 8 7 7 7 7
3 3 3 3 3 2 2 2 3 3 3 4 5 5 5 5 5 5 5 5 6 6 6 6 6 6 6 6 6 6 6 6 6 6 6 6 6 7 7 8 7 8 8 8 9 8 8 8 8 8 7 7
4 4 3 3 3 2 2 2 3 3 4 3 4 6 5 5 5 5 5 6 6 6 5 5 6 5 5 6 5 6 6 7 6 6 6 6 7 7 7 8 8 7 8 8 8 9 9 9 9 8 8 8
4 4 3 3 2 3 2 3 3 3 3 3 3 5 6 6 5 5 5 5 5 5 5 5 5 4 4 4 4 5 5 5 6 6 6 6 7 7 8 8 7 7 8 7 8 8 9 9 9 9 9 9
4 4 4 3 3 2 2 3 3 2 3 3 3 4 5 5 5 4 4 5 5 5 5 5 5 4 4 4 4 4 4 5 5 5 5 6 6 7 7 8 7 8 8 8 8 8 8 9 9 9 10 10
5 4 4 3 2 2 3 2 2 2 2 2 3 3 4 3 3 3 3 4 5 5 5 5 5 4 4 4 4 4 4 5 5 5 5 6 7 7 7 7 7 8 8 8 8 8 9 9 9 9 9 9
5 4 3 3 2 2 2 2 1 2 2 2 2 2 1 2 2 3 3 4 5 5 5 5 5 5 5 4 4 4 4 6 5 5 5 6 6 7 7 7 7 7 8 8 8 9 10 9 9 9 9 10
4 4 3 3 2 2 2 1 1 1 1 1 1 0 1 1 2 3 3 3 4 5 5 5 6 5 5 5 5 5 6 6 5 5 5 6 6 6 7 7 7 7 8 9 9 9 10 10 10 10 9 9
5 4 4 3 3 2 2 1 1 1 1 1 0 1 0 1 2 3 3 3 4 4 4 5 5 5 5 5 6 6 5 5 5 5 6 7 6 6 7 7 7 8 8 8 8 9 9 9 10 10 10 10
5 5 4 4 3 3 1 1 1 1 1 1 1 1 1 1 2 2 3 4 4 5 5 5 5 5 5 6 7 5 5 6 6 5 6 6 7 7 7 7 8 8 8 9 9 9 9 10 10 10 11 11
6 6 5 3 3 2 2 1 1 1 1 2 2 1 1 1 2 2 3 4 4 5 5 5 5 5 5 7 6 6 6 6 6 6 6 6 7 8 8 8 9 8 9 9 10 10 10 10 10 11 11 11
6 5 5 4 3 2 2 2 2 1 1 2 2 2 2 1 2 3 3 4 4 4 5 5 5 5 6 6 6 6 5 5 5 5 6 6 6 7 8 9 10 9 9 10 10 11 12 11 11 11 11 11
6 5 5 4 3 3 2 2 2 2 2 3 2 2 2 2 3 4 4 4 4 5 5 5 6 6 6 6 6 5 5 5 5 5 5 7 6 7 8 8 9 10 10 10 11 11 12 13 11 11 11 11
6 5 4 3 3 3 3 3 3 3 3 3 3 3 3 4 4 4 5 5 5 5 5 5 6 6 6 6 6 5 6 5 5 5 5 7 8 7 7 8 9 10 10 11 11 12 14 13 14 12 12 12
6 5 5 5 4 4 4 4 3 3 4 3 3 3 4 4 5 5 4 5 5 5 5 5 6 6 6 6 6 6 6 6 5 7 8 8 8 10 8 7 8 9 10 12 14 15 13 12 13 14 13 13
7 7 6 4 5 4 4 4 3 4 4 4 4 4 5 5 5 5 5 5 5 5 5 6 6 6 6 6 6 6 6 6 7 7 7 7 7 9 9 8 7 7 9 12 13 10 13 14 13 16 16 15
7 6 6 5 5 5 4 3 4 3 4 4 4 5 6 6 6 6 5 5 5 5 6 6 6 6 7 6 6 6 7 8 7 7 7 6 7 6 7 8 7 7 8 8 9 15 17 13 8 10 11 12
7 6 6 5 4 4 3 3 3 3 4 4 5 6 6 6 6 6 5 5 5 5 5 6 7 7 6 7 6 7 7 6 7 6 7 7 6 8 6 8 6 5 4 8 9 11 12 13 19 12 4 7
7 7 6 6 4 3 3 3 2 5 6 6 7 7 7 6 6 5 5 5 5 5 6 7 7 7 7 7 6 6 6 6 7 6 6 6 7 7 10 7 7 5 5 5 7 10 6 13 10 16 10 11
8 7 6 5 4 3 4 5 6 6 6 6 6 5 6 5 5 5 5 5 6 6 7 7 7 7 7 7 7 6 6 6 6 6 6 6 7 7 8 11 9 8 6 7 5 6 9 9 8 10 15 18
9 8 7 7 6 6 6 6 6 7 6 4 4 4 3 4 5 5 5 5 6 7 7 7 8 8 7 7 6 5 6 6 6 6 6 6 6 8 8 9 11 10 7 7 8 9 10 9 11 15 17 12
9 9 8 8 7 6 6 5 5 4 3 3 4 3 4 4 4 5 6 6 6 6 7 8 7 7 7 7 6 5 6 6 7 6 6 6 7 7 8 8 11 11 9 7 8 9 11 12 13 12 11 13
Wind_Direction
59 60 61 61 61 59 56 55 55 52 51 49 47 45 42 41 37 36 34 32 29 28 25 23 20 16 15 14 12 9 8 6 6 4 2 1 -0 359 358 358 356 352 349 347 346 344 343 344 339 333 326 302
53 58 61 63 63 63 61 59 55 53 50 48 45 42 41 40 37 35 32 31 28 27 23 19 16 11 12 11 10 7 5 3 1 1 360 358 357 356 355 354 351 347 345 345 344 341 340 337 330 318 304 285
58 54 58 62 63 62 62 61 59 56 51 45 42 37 34 30 34 33 32 25 28 23 23 18 12 8 8 8 6 4 2 1 358 357 356 355 353 352 350 347 343 338 338 343 341 341 338 330 321 303 280 284
70 59 58 60 60 60 59 56 55 52 48 47 36 31 22 23 19 25 30 21 24 20 22 19 12 7 8 7 5 1 359 358 357 355 352 352 349 348 345 342 333 325 330 336 339 338 332 325 307 292 307 313
69 57 67 70 65 63 57 54 51 45 43 33 39 20 21 20 26 26 23 20 13 15 18 19 10 8 7 8 6 360 357 356 355 353 351 349 347 345 341 338 323 311 326 327 330 331 323 303 291 314 314 313
92 94 71 69 69 62 61 52 49 48 38 33 27 19 25 26 26 22 26 21 10 12 9 17 6 5 5 6 4 359 353 352 352 350 348 347 345 341 339 333 330 335 332 323 328 312 285 284 318 314 317 311
108 96 90 85 79 83 69 63 52 51 42 36 27 25 26 32 30 15 29 24 3 331 342 7 356 358 359 1 1 355 348 350 350 346 344 344 342 334 335 332 338 335 333 329 329 318 315 327 316 317 306 299
110 100 98 89 83 76 76 66 65 59 49 38 31 23 28 26 18 6 14 7 355 322 358 6 355 354 353 360 2 353 346 348 352 342 344 342 341 336 345 341 335 334 329 327 327 325 324 321 321 312 305 298
114 114 105 95 88 75 68 65 62 61 59 47 33 28 26 20 17 6 14 9 4 2 3 358 358 358 2 1 358 355 355 352 348 344 343 343 343 343 338 338 334 330 326 324 322 319 316 314 310 307 302 298
119 129 97 89 79 80 66 65 61 60 52 47 33 28 17 14 19 14 14 10 7 5 3 3 2 1 2 357 358 357 353 352 345 341 343 341 340 335 330 326 325 324 319 317 318 314 312 308 306 302 300 296
125 98 94 77 63 60 68 60 60 55 52 46 38 24 24 14 14 14 11 7 5 5 2 3 360 357 358 359 360 357 353 350 344 340 338 336 331 328 323 320 317 314 312 312 310 308 307 305 304 299 294 293
126 110 98 105 117 92 57 53 59 60 49 45 44 36 24 12 15 9 9 4 2 358 360 358 350 347 352 355 358 354 354 351 347 343 340 335 331 326 322 317 314 311 310 307 302 302 304 304 299 298 296 292
125 125 121 110 101 87 58 66 57 51 50 44 39 41 27 18 10 7 3 0 355 348 354 347 344 338 348 344 351 349 348 348 341 338 337 335 333 329 323 319 315 313 306 302 304 300 297 296 297 295 293 291
136 137 126 111 93 88 93 71 65 53 52 45 36 38 26 21 4 359 355 356 349 345 346 337 334 331 338 338 347 345 343 342 332 331 327 330 325 322 318 315 313 311 307 304 299 296 295 294 292 292 292 290
133 134 126 119 117 105 88 89 93 72 63 56 51 38 29 3 4 348 354 355 351 343 337 333 331 328 331 330 344 341 336 334 326 320 324 327 325 322 319 313 314 310 309 305 302 299 295 293 292 288 286 285
135 131 122 123 128 114 92 90 87 86 76 68 63 54 19 353 1 351 354 358 349 339 327 327 329 322 327 329 336 334 333 325 314 312 313 315 313 308 307 311 310 312 308 304 303 304 299 295 291 288 287 285
135 135 137 144 142 127 124 115 104 96 98 69 95 149 31 350 354 352 357 346 335 325 318 319 319 323 321 325 331 323 318 312 311 314 321 318 313 305 307 301 304 306 302 302 302 301 298 297 292 290 287 285
150 154 158 156 158 138 163 133 152 145 127 107 238 228 22 335 351 343 346 337 325 319 318 316 311 318 319 326 324 314 318 321 325 321 322 321 319 317 310 310 309 306 299 295 296 295 296 292 290 289 287 285
159 161 166 171 167 155 174 151 194 167 164 209 227 253 216 325 333 325 328 324 317 316 313 314 312 315 319 327 317 315 324 324 322 322 323 323 321 315 310 309 306 304 299 298 294 289 289 289 290 287 284 281
165 168 171 173 161 158 164 198 205 206 213 237 242 230 255 254 284 300 301 302 304 305 308 308 308 308 317 318 313 317 315 317 317 322 318 315 316 316 312 312 307 305 301 298 296 294 289 285 283 283 281 279
169 168 169 177 173 163 178 216 215 221 232 246 236 244 261 265 277 273 278 283 290 290 293 296 298 299 303 309 307 303 307 300 307 312 310 307 311 305 306 307 302 302 302 301 297 293 286 283 279 276 277 275
171 174 170 180 178 186 202 215 243 236 240 243 251 250 256 258 267 266 272 277 280 288 287 285 284 291 292 293 292 288 291 292 294 296 302 305 303 303 301 301 305 304 302 300 295 291 286 281 275 274 274 270
170 166 179 173 187 196 220 223 230 240 241 246 248 254 254 261 260 257 263 271 274 280 287 286 284 281 287 287 284 287 286 289 288 292 301 298 298 293 291 295 297 300 302 298 292 285 281 276 270 268 266 267
177 181 184 187 185 205 216 225 224 226 236 246 248 244 253 252 254 260 266 272 278 275 279 286 284 283 284 279 277 280 281 287 297 303 299 291 295 296 293 286 291 298 305 299 291 282 279 276 278 270 261 261
182 181 184 187 200 204 198 208 219 234 235 233 241 242 250 254 254 256 261 267 267 275 280 279 280 278 274 273 271 269 273 277 281 281 282 291 291 293 296 295 296 301 308 303 299 297 289 285 273 263 259 255
183 188 189 185 189 195 199 203 218 233 223 225 233 244 247 252 253 254 262 267 271 276 278 280 280 276 276 274 273 271 271 268 269 273 277 288 294 287 293 294 298 300 312 304 323 324 321 302 274 266 263 254
184 182 183 187 177 189 197 216 251 257 258 256 247 244 244 247 253 257 261 262 270 277 274 274 275 273 276 274 272 274 272 273 274 281 284 287 293 305 292 284 285 284 291 301 313 296 286 312 331 314 259 251
177 179 176 187 192 183 219 237 220 241 246 241 239 240 239 241 246 256 266 271 273 271 272 273 271 274 272 272 269 272 279 280 278 278 287 293 296 298 302 301 298 291 283 280 318 320 332 307 303 301 314 332
175 166 173 176 175 202 223 233 240 237 235 225 225 233 229 230 236 255 266 270 267 268 270 268 266 265 270 269 271 273 276 277 282 287 285 290 293 293 297 302 299 292 275 262 240 266 307 312 292 282 307 334
179 182 186 184 192 200 207 218 213 220 223 212 219 234 236 243 245 255 262 262 266 265 267 264 264 266 269 272 272 273 280 281 282 282 286 288 291 287 280 282 294 289 273 256 246 238 241 243 274 305 308 321
180 185 194 198 204 213 218 226 226 233 252 251 253 262 269 276 268 263 268 270 269 272 271 271 270 270 270 274 276 279 282 286 287 289 293 289 281 280 282 279 280 283 289 281 251 240 240 246 254 261 285 292